Quillayute, WA

6:35 AM PDT on August 16, 2017 (GMT -0700)
Quillayute

Weather History for KUIL - December, 2011

Change the Weather History Date:

Saturday, December 10, 2011

  Actual Average Record
Temperature  
Mean Temperature 35 °F 40 °F  
Max Temperature 42 °F 46 °F 58 °F (2014)
Min Temperature 27 °F 35 °F 10 °F (1972)
Degree Days  
Heating Degree Days 30 25  
Month to date heating degree days 242  
Since 1 July heating degree days 1956  
Cooling Degree Days 0 0  
Month to date cooling degree days 0  
Year to date cooling degree days 19  
Moisture  
Dew Point 36 °F    
Average Humidity 97    
Maximum Humidity 100    
Minimum Humidity 93    
Precipitation  
Precipitation 0.05 in 0.42 in 3.36 in (2014)
Month to date precipitation 4.49  
Year to date precipitation 91.04  
Sea Level Pressure  
Sea Level Pressure 30.13 in    
Wind  
Wind Speed 0 mph (NE)    
Max Wind Speed 9 mph    
Max Gust Speed 13 mph    
Visibility 4 miles    
Events Fog , Rain    
T = Trace of Precipitation, MM = Missing Value Source: NWS Daily Summary

Daily Weather History Graph

Daily Weather History Graph

Search for Another Location

Airport or City:

Trip Planner

Search our weather history database for the weather conditions in past years. The results will help you decide how hot, cold, wet, or windy it might be!

Date:

Astronomy

Dec. 10, 2011 Rise Set
Actual Time 7:56 AM PST 4:25 PM PST
Civil Twilight 7:20 AM PST 5:01 PM PST
Nautical Twilight 6:41 AM PST 5:40 PM PST
Astronomical Twilight 6:03 AM PST 6:18 PM PST
Moon 4:43 PM PST (12/10) 8:02 AM PST (12/10)
Length of Visible Light 9h 40m
Length of Day
8h 28m
Full, 100% of the Moon is Illuminated
Dec 10
Full
Dec 17
Last Quarter
Dec 24
New
Dec 31
First Quarter
Jan 8
Full

Hourly Weather History & Observations

Time (PST) Temp. Windchill Dew Point Humidity Pressure Visibility Wind Dir Wind Speed Gust Speed Precip Events Conditions
12:28 AM 30.2 °F - 28.4 °F 93% 30.14 in 10.0 mi Calm Calm - N/A   Scattered Clouds
12:53 AM 30.0 °F - 30.0 °F 100% 30.14 in 10.0 mi Calm Calm - N/A   Clear
1:53 AM 27.0 °F - 26.1 °F 96% 30.15 in 2.0 mi Calm Calm - N/A   Partly Cloudy
2:02 AM 26.6 °F - 26.6 °F 100% 30.14 in 3.0 mi Calm Calm - N/A   Mostly Cloudy
2:53 AM 28.0 °F - 27.0 °F 96% 30.15 in 10.0 mi Calm Calm - N/A   Mostly Cloudy
3:09 AM 28.4 °F - 28.4 °F 100% 30.14 in 9.0 mi Calm Calm - N/A   Mostly Cloudy
3:30 AM 28.4 °F - 26.6 °F 93% 30.14 in 10.0 mi Calm Calm - N/A   Scattered Clouds
3:53 AM 28.0 °F - 27.0 °F 96% 30.15 in 10.0 mi Calm Calm - N/A   Partly Cloudy
4:19 AM 28.4 °F - 28.4 °F 100% 30.14 in 9.0 mi Calm Calm - N/A   Mostly Cloudy
4:53 AM 30.0 °F - 28.9 °F 96% 30.15 in 10.0 mi Calm Calm - N/A   Overcast
5:53 AM 30.9 °F - 30.9 °F 100% 30.15 in 9.0 mi Calm Calm - N/A   Overcast
6:53 AM 32.0 °F - 32.0 °F 100% 30.15 in 10.0 mi Calm Calm - N/A   Overcast
7:20 AM 33.8 °F 30.8 °F 32.0 °F 93% 30.14 in 10.0 mi ENE 3.5 mph - N/A   Overcast
7:53 AM 33.1 °F - 32.0 °F 96% 30.15 in 10.0 mi Calm Calm - N/A   Overcast
8:00 AM 32.0 °F - 32.0 °F 100% - - North - - N/A   Unknown
8:38 AM 33.8 °F - 32.0 °F 93% 30.15 in 10.0 mi Calm Calm - N/A   Overcast
8:53 AM 32.0 °F - 32.0 °F 100% 30.16 in 10.0 mi Calm Calm - N/A   Overcast
9:17 AM 32.0 °F - 32.0 °F 100% 30.15 in 7.0 mi Calm Calm - N/A   Partly Cloudy
9:44 AM 33.8 °F - 33.8 °F 100% 30.16 in 10.0 mi Calm Calm - N/A   Mostly Cloudy
9:53 AM 34.0 °F - 34.0 °F 100% 30.17 in 10.0 mi Calm Calm - N/A   Overcast
10:53 AM 35.1 °F - 35.1 °F 100% 30.17 in 10.0 mi Calm Calm - N/A   Overcast
11:53 AM 37.9 °F - 37.0 °F 97% 30.15 in 5.0 mi Calm Calm - N/A   Overcast
12:04 PM 39.2 °F - 37.4 °F 93% 30.14 in 2.0 mi Calm Calm - N/A   Overcast
12:24 PM 39.2 °F - 37.4 °F 93% 30.13 in 4.0 mi Calm Calm - N/A   Overcast
12:53 PM 39.9 °F - 39.0 °F 97% 30.14 in 3.0 mi Calm Calm - N/A   Overcast
12:59 PM 39.2 °F - 39.2 °F 100% 30.13 in 2.5 mi Calm Calm - N/A   Overcast
1:10 PM 39.2 °F - 39.2 °F 100% 30.13 in 1.5 mi Calm Calm - N/A   Overcast
1:19 PM 39.2 °F - 39.2 °F 100% 30.13 in 1.2 mi Calm Calm - 0.01 in   Overcast
1:35 PM 41.0 °F - 39.2 °F 93% 30.13 in 1.5 mi Calm Calm - 0.01 in   Overcast
1:49 PM 41.0 °F - 39.2 °F 93% 30.13 in 2.5 mi Calm Calm - 0.01 in   Overcast
1:53 PM 41.0 °F - 39.9 °F 96% 30.14 in 2.5 mi Calm Calm - 0.01 in   Overcast
1:58 PM 41.0 °F - 41.0 °F 100% 30.13 in 1.8 mi Calm Calm - N/A   Overcast
2:07 PM 41.0 °F - 41.0 °F 100% 30.12 in 1.0 mi Calm Calm - N/A   Overcast
2:18 PM 42.8 °F - 41.0 °F 93% 30.12 in 1.2 mi Calm Calm - N/A   Overcast
2:26 PM 42.8 °F - 41.0 °F 93% 30.12 in 2.0 mi Calm Calm - N/A   Overcast
2:32 PM 42.8 °F - 41.0 °F 93% 30.12 in 3.0 mi Calm Calm - N/A   Overcast
2:40 PM 42.8 °F - 41.0 °F 93% 30.12 in 4.0 mi Calm Calm - N/A   Overcast
2:53 PM 42.1 °F - 41.0 °F 96% 30.12 in 7.0 mi Calm Calm - N/A   Overcast
3:00 PM 32.0 °F - 32.0 °F 100% - - North - - N/A   Unknown
3:15 PM 42.8 °F - 41.0 °F 93% 30.12 in 9.0 mi Calm Calm - N/A   Overcast
3:53 PM 42.1 °F - 41.0 °F 96% 30.13 in 3.0 mi Calm Calm - N/A   Overcast
4:23 PM 42.8 °F - 41.0 °F 93% 30.12 in 2.5 mi Calm Calm - N/A   Overcast
4:32 PM 42.8 °F - 41.0 °F 93% 30.11 in 1.5 mi Calm Calm - N/A   Overcast
4:53 PM 41.0 °F - 41.0 °F 100% 30.12 in 1.5 mi Calm Calm - N/A   Overcast
5:00 PM - - - N/A% - - North - - N/A   Unknown
5:01 PM 41.0 °F - 41.0 °F 100% 30.11 in 0.8 mi Calm Calm - N/A   Overcast
5:15 PM 41.0 °F - 39.2 °F 93% 30.11 in 0.2 mi Calm Calm - N/A Fog Fog
5:23 PM 41.0 °F - 39.2 °F 93% 30.11 in 0.5 mi Calm Calm - 0.00 in Fog , Rain Light Rain
5:40 PM 41.0 °F - 39.2 °F 93% 30.11 in 1.0 mi Calm Calm - 0.00 in   Mist
5:53 PM 41.0 °F - 39.9 °F 96% 30.12 in 0.8 mi Calm Calm - 0.01 in   Mist
6:07 PM 39.2 °F - 39.2 °F 100% 30.11 in 0.5 mi Calm Calm - N/A Fog Fog
6:43 PM 39.2 °F - 39.2 °F 100% 30.11 in 1.5 mi Calm Calm - N/A   Overcast
6:47 PM 39.2 °F - 39.2 °F 100% 30.11 in 3.0 mi Calm Calm - N/A   Overcast
6:53 PM 39.9 °F 37.8 °F 39.0 °F 97% 30.11 in 4.0 mi East 3.5 mph - N/A   Overcast
7:17 PM 39.2 °F - 39.2 °F 100% 30.10 in 1.8 mi Calm Calm - N/A   Overcast
7:22 PM 39.2 °F - 39.2 °F 100% 30.11 in 1.2 mi Calm Calm - N/A   Overcast
7:31 PM 39.2 °F - 39.2 °F 100% 30.11 in 1.2 mi Calm Calm - 0.00 in Rain Light Rain
7:35 PM 39.2 °F - 39.2 °F 100% 30.11 in 1.8 mi Calm Calm - 0.00 in Rain Light Rain
7:43 PM 39.2 °F - 39.2 °F 100% 30.11 in 2.5 mi Calm Calm - 0.00 in   Overcast
7:53 PM 39.9 °F - 39.0 °F 97% 30.12 in 3.0 mi Calm Calm - 0.01 in   Overcast
8:17 PM 39.2 °F - 39.2 °F 100% 30.11 in 2.5 mi Calm Calm - 0.01 in Rain Light Rain
8:32 PM 39.2 °F 35.9 °F 39.2 °F 100% 30.11 in 1.2 mi SE 4.6 mph - 0.02 in Rain Light Rain
8:43 PM 39.2 °F 35.9 °F 39.2 °F 100% 30.10 in 0.5 mi SE 4.6 mph - 0.02 in Fog Fog
8:53 PM 39.0 °F - 39.0 °F 100% 30.12 in 0.8 mi Calm Calm - 0.02 in Rain Light Rain
8:57 PM 39.2 °F 35.9 °F 39.2 °F 100% 30.11 in 1.5 mi NW 4.6 mph - 0.00 in   Overcast
9:01 PM 39.2 °F 35.0 °F 39.2 °F 100% 30.11 in 3.0 mi NW 5.8 mph - 0.00 in   Overcast
9:22 PM 39.2 °F 37.0 °F 39.2 °F 100% 30.11 in 10.0 mi North 3.5 mph - 0.00 in   Overcast
9:53 PM 39.9 °F 37.8 °F 39.0 °F 97% 30.12 in 10.0 mi North 3.5 mph - 0.00 in   Overcast
10:34 PM 37.4 °F - 37.4 °F 100% 30.11 in 1.8 mi Calm Calm - N/A   Overcast
10:45 PM 37.4 °F - 37.4 °F 100% 30.11 in 3.0 mi Calm Calm - N/A   Mostly Cloudy
10:51 PM 37.4 °F - 37.4 °F 100% 30.11 in 1.2 mi Calm Calm - N/A   Mostly Cloudy
10:53 PM 37.9 °F - 37.0 °F 97% 30.12 in 0.5 mi Calm Calm - N/A Fog Fog
11:02 PM 37.4 °F - 35.6 °F 93% 30.11 in 0.2 mi Calm Calm - N/A Fog Fog
11:07 PM 35.6 °F - 35.6 °F 100% 30.11 in 0.5 mi Calm Calm - N/A Fog Fog
11:34 PM 33.8 °F - 33.8 °F 100% 30.11 in 0.5 mi Calm Calm - N/A Fog Fog
11:43 PM 33.8 °F - 33.8 °F 100% 30.11 in 0.2 mi Calm Calm - N/A Fog Fog
11:53 PM 35.1 °F - 34.0 °F 96% 30.11 in 0.2 mi Calm Calm - N/A Fog Fog